User: anonymous   Login
Location: Pulvis Stellarum Observatory
(41.6962°N, 71.4263°W)
Time: 20:06:18
(UTC-04:00)
Language:

Cosmos 1758 - Orbit

View from above orbital plane
View from above orbital plane
View from above satellite
View from above satellite

Ground track
Ground track

The orbit data is extracted from the following two-line orbital elements,

1 16791U 86046A   15188.55368206  .00001702  00000-0  12367-3 0  9998
2 16791 082.4699 003.8994 0016891 351.1012 008.9911 15.03152000578875
Epoch (UTC): 07 July 2015 13:17:18
Eccentricity: 0.0016891
inclination: 82.4699°
perigee height: 545 km
apogee height: 569 km
right ascension of ascending node: 3.8994°
argument of perigee: 351.1012°
revolutions per day: 15.03152000
mean anomaly at epoch: 8.9911°
orbit number at epoch: 57887

The dashed part of the orbit path shows where the satellite is in the earth's shadow,  

DLR